[[{"header":{"parameterUnit":"m.s-1","parameterCategory":1,"la1":30.2991,"la2":30.254,"lo1":-89.0895,"lo2":-89.0444,"dy":0.0017,"dx":0.0017,"nx":28,"ny":28,"refTime":"2024-07-15T09:00:00:Z","depth":0,"parameterNumber":2,"parameterNumberName":"U-component_of_WINDS"},"data":[0,0,0,0,0,0,0,0,0,0,0,0,0,0,0,0,0,0,0,0,0,0,0,0,0,0,0,0,0,0,0,0,0,0,0,0,0,0,0,0,0,0,0,0,0,0,0,0,0,0,0,0,0,0,0,0,0,0,3.9416,3.9417,0,3.9542,3.9543,3.9545,3.9485,3.9482,3.9479,3.9476,3.9606,3.9612,3.9619,0,0,0,0,0,0,0,0,0,0,0,0,0,3.912,3.9126,3.9415,3.9417,3.9419,3.9542,3.9544,3.9545,3.9486,3.9482,3.9478,3.9475,3.9604,3.9612,3.9619,0,0,0,0,0,0,0,0,0,0,0,0,0,3.9248,3.9128,3.9415,3.9404,3.9404,3.9541,3.9544,3.9546,3.9487,3.9482,3.9477,3.9473,3.9601,3.9611,3.962,3.9776,0,0,3.965,3.9654,0,0,0,0,0,0,0,0,3.9241,3.9259,3.9404,3.9405,3.9405,3.9493,3.9487,3.9623,3.9488,3.9455,3.9476,3.947,3.9572,3.9584,3.9618,3.9783,3.9788,3.9651,3.9657,3.9661,3.9664,0,0,0,0,0,0,0,3.9232,3.9253,3.9465,3.9406,3.9407,3.9392,3.9405,3.9513,3.9539,3.9458,3.9454,3.947,3.9572,3.9609,3.9621,3.979,3.9651,3.9659,3.9665,3.9669,4.0084,4.0089,0,0,0,0,0,0,3.9224,3.9246,3.9461,3.9469,3.931,3.9401,3.9415,3.947,3.9538,3.9544,3.9474,3.9466,3.9595,3.961,3.9625,3.9809,3.9661,3.967,3.9675,4.0079,4.0085,4.0091,0,0,0,0,0,0,3.9218,3.9243,3.9456,3.9357,3.9383,3.9411,3.9473,3.9475,3.9512,3.955,3.9554,3.9507,3.9592,3.9612,3.9738,3.9813,3.9674,3.9683,4.0073,4.0081,4.0088,4.0181,0,0,0,0,0,0,3.9209,3.9242,3.9302,3.9358,3.9388,3.9568,3.9478,3.9481,3.9529,3.9521,3.9582,3.9588,3.959,3.9724,3.9748,3.9824,3.9691,4.0066,4.0076,4.0086,4.0171,4.0191,4.0208,0,0,0,0,0,3.9199,3.9324,3.9305,3.9332,3.9464,3.9573,3.9589,3.9589,3.9535,3.9595,3.9619,3.9586,3.9802,3.9738,3.9764,3.9844,4.0061,4.0073,4.0085,4.0163,4.0187,4.0207,0,0,0,0,0,0,3.9276,3.9331,3.9311,3.9458,3.9511,3.9562,3.9638,3.9615,3.9684,3.9673,3.967,3.9684,3.9814,3.9842,3.977,3.9997,3.9923,3.9941,3.9973,3.9997,4.0015,4.0004,3.9699,0,0,0,0,0,3.931,3.9394,3.9438,3.9563,3.959,3.961,3.9657,3.9652,3.9706,3.9729,3.9762,3.9816,3.9895,3.9948,4.0023,4.0175,4.0186,4.0243,4.0261,4.0276,4.0291,4.0369,4.0394,4.0129,4.0129,4.0129,0,0,3.9382,3.9422,3.9475,3.9579,3.962,3.9705,3.9629,3.9724,3.9787,3.9743,3.9863,3.989,3.995,4.0088,4.0151,4.0116,4.0366,4.0291,4.0303,4.0309,4.0384,4.0409,4.0431,4.0137,4.0136,4.0135,0,0,3.9555,3.9595,3.9702,3.9744,3.9805,3.9817,3.9842,3.9897,3.9912,4.0033,4.0001,4.0075,4.0214,4.0256,4.0296,4.0483,4.0454,4.0508,4.0602,4.0679,4.07,4.0718,4.0782,4.0805,4.0522,4.0523,4.0523,0,3.9636,3.9764,3.976,3.9857,3.9902,3.9865,3.9972,4.0013,4.0096,4.0128,4.0087,4.0257,4.0295,4.0441,4.0486,4.0521,4.0548,4.05,4.0697,4.0716,4.0733,4.0793,4.0817,4.0529,4.0528,4.0527,4.0527,0,3.9858,3.9948,4.0027,4.0106,4.0161,4.0263,4.0273,4.0329,4.0318,4.0334,4.0455,4.05,4.0582,4.0616,4.0608,4.0761,4.0736,4.0697,4.0622,4.0764,4.082,4.0844,4.0537,4.0535,4.0533,4.0532,0,0,4.0085,4.0159,4.0188,4.0222,4.0286,4.0354,4.0453,4.0533,4.0579,4.0637,4.0718,4.0835,4.0797,4.0842,4.0838,4.0906,4.1046,4.0857,4.0858,4.0888,4.1214,4.1241,4.1268,4.1028,4.1032,4.1036,4.1207,0,4.026,4.0432,4.0431,4.059,4.067,4.0636,4.0721,4.0769,4.0786,4.0856,4.0874,4.0955,4.0901,4.0928,4.0993,4.1015,4.1111,4.1003,4.1101,4.1105,4.1085,4.1298,4.1329,4.1489,4.123,4.1234,4.1237,0,4.0488,4.0552,4.0718,4.0767,4.0801,4.0878,4.0949,4.1017,4.1069,4.1077,4.1126,4.111,4.1209,4.1133,4.1267,4.1193,4.1233,4.125,4.1256,4.1263,4.1178,4.1309,4.154,4.1563,4.1272,4.1269,4.1267,0,4.0632,4.076,4.0875,4.0906,4.0967,4.1021,4.1049,4.1097,4.1143,4.1205,4.1235,4.1308,4.1348,4.1404,4.1408,4.1353,4.1542,4.1468,4.1549,4.1549,4.1589,4.1586,4.1827,4.162,4.1619,4.1619,4.1618,0,4.0827,4.0929,4.094,4.1011,4.1124,4.1121,4.1232,4.1255,4.1298,4.1371,4.1346,4.1415,4.1417,4.1488,4.1492,4.16,4.1619,4.1626,4.1625,4.1627,4.1626,4.1652,4.1639,4.1625,4.1624,4.1623,4.1621,0,4.1006,4.1018,4.1141,4.1187,4.1201,4.1282,4.1322,4.1388,4.1402,4.1495,4.1516,4.1538,4.1619,4.1629,4.1724,4.1726,4.1856,4.1845,4.1838,4.1835,4.1915,4.1906,4.218,4.2214,4.1986,4.1989,4.199,0,4.1128,4.1206,4.126,4.1307,4.1338,4.1414,4.1461,4.146,4.151,4.1574,4.1632,4.1711,4.1773,4.1905,4.1928,4.2,4.1989,4.2079,4.1999,4.1997,4.1986,4.198,4.1986,4.2094,4.2097,4.2099,4.21,0,4.1343,4.1344,4.1413,4.1483,4.1539,4.1594,4.1646,4.1686,4.1691,4.1748,4.183,4.1879,4.1974,4.2052,4.2122,4.215,4.2125,4.2125,4.2147,4.2149,4.214,4.2142,4.1877,4.2119,4.2117,4.2116,4.2115,4.2114,4.1496,4.1562,4.1609,4.1685,4.1724,4.1772,4.1835,4.1856,4.1925,4.2002,4.1997,4.2087,4.2135,4.2226,4.2259,4.2328,4.2298,4.2331,4.2339,4.2346,4.2352,4.2131,4.2342,4.2341,4.2341,4.234,4.234,0,4.1706,4.1734,4.1805,4.1876,4.1936,4.1908,4.1963,4.2014,4.2093,4.2139,4.2201,4.2293,4.2367,4.2396,4.2468,4.2518,4.2508,4.2537,4.2532,4.2537,4.2377,4.2349,4.2543,4.2543,4.2543,4.2543,4.2543,4.2543,4.1822,4.1931,4.1938,4.2065,4.2092,4.2179,4.2212,4.2256,4.2292,4.2397,4.2458,4.2476,4.2514,4.2588,4.2654,4.266,4.2687,4.2719,4.2721,4.257,4.2549,4.253,4.2503,4.2726,4.2726,4.2875,4.2876,4.2877]},{"header":{"parameterUnit":"m.s-1","parameterCategory":1,"la1":30.2991,"la2":30.254,"lo1":-89.0895,"lo2":-89.0444,"dy":0.0017,"dx":0.0017,"nx":28,"ny":28,"refTime":"2024-07-15T09:00:00:Z","depth":0,"parameterNumber":3,"parameterNumberName":"V-component_of_WINDS"},"data":[0,0,0,0,0,0,0,0,0,0,0,0,0,0,0,0,0,0,0,0,0,0,0,0,0,0,0,0,0,0,0,0,0,0,0,0,0,0,0,0,0,0,0,0,0,0,0,0,0,0,0,0,0,0,0,0,0,0,1.5115,1.5115,0,1.5125,1.5125,1.5125,1.5091,1.509,1.5089,1.5088,1.51,1.5102,1.5103,0,0,0,0,0,0,0,0,0,0,0,0,0,1.5064,1.5065,1.5115,1.5115,1.5115,1.5125,1.5125,1.5126,1.5091,1.509,1.5089,1.5088,1.51,1.5102,1.5103,0,0,0,0,0,0,0,0,0,0,0,0,0,1.5082,1.5066,1.5114,1.5099,1.5098,1.5125,1.5125,1.5126,1.5092,1.509,1.5088,1.5087,1.51,1.5101,1.5103,1.5147,0,0,1.5109,1.511,0,0,0,0,0,0,0,0,1.5081,1.5084,1.5101,1.51,1.5099,1.5105,1.5112,1.5133,1.5092,1.5094,1.5088,1.5086,1.5103,1.5105,1.511,1.5148,1.5148,1.511,1.5111,1.5112,1.5112,0,0,0,0,0,0,0,1.508,1.5083,1.5119,1.5101,1.51,1.5091,1.5092,1.5116,1.5107,1.5094,1.5091,1.5093,1.5102,1.5109,1.5111,1.5148,1.5109,1.5111,1.5112,1.5113,1.522,1.5221,0,0,0,0,0,0,1.508,1.5082,1.5118,1.5119,1.5086,1.5094,1.5094,1.5105,1.5107,1.5106,1.5094,1.5091,1.5106,1.5108,1.5111,1.5161,1.5112,1.5113,1.5115,1.5218,1.522,1.5222,0,0,0,0,0,0,1.5079,1.5084,1.5118,1.51,1.5104,1.5096,1.5108,1.5106,1.5112,1.5107,1.5106,1.5102,1.5105,1.5108,1.5138,1.5161,1.5114,1.5116,1.5216,1.5219,1.5221,1.5262,0,0,0,0,0,0,1.5078,1.5084,1.5101,1.5101,1.5105,1.5145,1.5109,1.5107,1.5115,1.5111,1.5114,1.5113,1.5104,1.5135,1.514,1.5163,1.5118,1.5214,1.5217,1.522,1.5259,1.5266,1.5272,0,0,0,0,0,1.5077,1.5112,1.5102,1.5106,1.5125,1.5146,1.5149,1.5137,1.5117,1.5134,1.513,1.5113,1.5157,1.5138,1.5143,1.5167,1.5212,1.5216,1.522,1.5256,1.5264,1.5271,0,0,0,0,0,0,1.5117,1.5112,1.51,1.5137,1.5142,1.514,1.5161,1.5146,1.5158,1.5154,1.5139,1.514,1.5172,1.5172,1.5151,1.5209,1.5182,1.5186,1.5207,1.5215,1.5222,1.5221,1.5119,0,0,0,0,0,1.5129,1.5146,1.5142,1.5175,1.5178,1.5169,1.5178,1.5168,1.5173,1.5175,1.5174,1.518,1.5194,1.5205,1.5219,1.5258,1.5258,1.5277,1.5284,1.5289,1.5293,1.5313,1.5321,1.5234,1.5234,1.5234,0,0,1.5157,1.5156,1.5168,1.5183,1.5186,1.5204,1.5171,1.5192,1.5205,1.5178,1.5206,1.5205,1.521,1.5245,1.526,1.5246,1.5317,1.5294,1.5298,1.53,1.5318,1.5326,1.5333,1.5236,1.5236,1.5236,0,0,1.5215,1.5217,1.5244,1.5247,1.5251,1.5244,1.5251,1.5251,1.5249,1.5276,1.5256,1.5271,1.5298,1.5302,1.5307,1.5365,1.535,1.537,1.5404,1.5424,1.5431,1.5437,1.5456,1.5464,1.5375,1.5375,1.5375,0,1.5249,1.5275,1.526,1.5281,1.5288,1.5263,1.529,1.5294,1.5303,1.5308,1.5292,1.5323,1.5325,1.536,1.5373,1.5379,1.5385,1.537,1.5431,1.5437,1.5442,1.5461,1.5468,1.5377,1.5377,1.5377,1.5376,0,1.5315,1.5333,1.5355,1.5362,1.5371,1.5395,1.5384,1.5395,1.5383,1.5378,1.5406,1.5407,1.5419,1.5427,1.5417,1.5459,1.5451,1.5433,1.5406,1.5453,1.547,1.5477,1.5381,1.538,1.5379,1.5378,0,0,1.5401,1.5398,1.5406,1.5409,1.541,1.5424,1.5447,1.5458,1.5467,1.5474,1.5492,1.5514,1.5497,1.5503,1.5493,1.551,1.5554,1.549,1.549,1.5502,1.56,1.5613,1.5622,1.5544,1.5545,1.5546,1.56,0,1.5458,1.5496,1.5482,1.5521,1.5537,1.5512,1.5532,1.5535,1.553,1.5543,1.5538,1.5554,1.5531,1.5534,1.555,1.5546,1.5574,1.5542,1.556,1.5561,1.556,1.5631,1.5645,1.5696,1.5606,1.5608,1.5608,0,1.553,1.5538,1.5578,1.5575,1.5581,1.5598,1.5607,1.5619,1.5622,1.5617,1.5623,1.5609,1.563,1.5603,1.5632,1.561,1.5616,1.5615,1.5617,1.5618,1.5588,1.5634,1.5712,1.5719,1.5619,1.5618,1.5617,0,1.5587,1.5608,1.5634,1.5637,1.5634,1.5647,1.5647,1.5647,1.5655,1.5662,1.5666,1.5677,1.5682,1.569,1.5679,1.566,1.5709,1.5681,1.5706,1.5706,1.5718,1.5717,1.5797,1.5722,1.5722,1.5722,1.5722,0,1.5652,1.5678,1.5659,1.5675,1.5702,1.5686,1.5713,1.571,1.5711,1.5726,1.5706,1.572,1.5704,1.5717,1.5708,1.5733,1.5736,1.5733,1.573,1.5734,1.5735,1.5738,1.5735,1.5724,1.5724,1.5723,1.5723,0,1.5721,1.571,1.5737,1.5731,1.573,1.5751,1.5746,1.5761,1.5754,1.5773,1.5776,1.5766,1.578,1.5769,1.5783,1.5777,1.581,1.5802,1.5809,1.5806,1.5832,1.5829,1.5917,1.5927,1.5846,1.5847,1.5848,0,1.5764,1.5782,1.5778,1.5786,1.5786,1.58,1.5806,1.5791,1.5798,1.5802,1.5816,1.5827,1.5836,1.5859,1.5853,1.5863,1.5856,1.5886,1.5857,1.5861,1.5856,1.5854,1.5856,1.5892,1.5893,1.5894,1.5894,0,1.5839,1.5832,1.5842,1.585,1.5858,1.5863,1.5867,1.5875,1.5859,1.5869,1.5882,1.5888,1.5902,1.5913,1.5921,1.5921,1.5905,1.5903,1.5909,1.5914,1.5916,1.5914,1.5824,1.5901,1.59,1.59,1.59,1.5899,1.5896,1.591,1.5909,1.592,1.5921,1.5925,1.5938,1.5932,1.5942,1.5951,1.5941,1.5957,1.5958,1.5966,1.5968,1.598,1.5968,1.5977,1.5979,1.5982,1.5985,1.5914,1.5982,1.5981,1.5981,1.5981,1.5981,0,1.5969,1.5967,1.5977,1.5983,1.5991,1.5974,1.5977,1.5986,1.6,1.6001,1.6009,1.6024,1.6035,1.6029,1.6038,1.6049,1.6042,1.6052,1.6051,1.6051,1.5996,1.5989,1.6058,1.6058,1.6058,1.6058,1.6058,1.6058,1.6009,1.6032,1.6025,1.6048,1.6045,1.606,1.6063,1.6066,1.6067,1.6084,1.6092,1.6088,1.6086,1.6095,1.6104,1.6102,1.6106,1.6119,1.6114,1.6063,1.6055,1.6048,1.6042,1.612,1.612,1.6168,1.6169,1.6169]}]]